Regional Weather Roundup
Issued by NWS Sterling, VA

Home | Current Version | Previous Version | Graphics & Text | Print | Product List | Glossary On
Versions: 1 2 3 4 5 6 7 8 9 10 11 12 13 14 15 16 17 18 19 20 21 22 23 24 25 26 27
000
ASUS41 KLWX 230411
RWRLWX

REGIONAL WEATHER ROUNDUP
NATIONAL WEATHER SERVICE BALTIMORE MD/WASHINGTON DC
1200 AM EDT FRI JUN 23 2017

Note: "FAIR" indicates few or no clouds below 12,000 feet
with no significant weather and/or obstructions to visibility.
 TC=TEMPERATURE CELSIUS

 * =Non NWS site. Station does not report precipitation (e.g. rain,
    snow, etc.), thunder, or fog.

DCZ001-MDZ009-015-VAZ040>042-051-053>054-230500-
WASHINGTON METRO

CITY           SKY/WX    TMP DP  RH WIND       PRES   REMARKS
WASHINGTON NAT CLOUDY    80  75  84 S8        29.95F
DULLES         MOCLDY    77  70  79 S7        29.95F
FT BELVOIR     CLOUDY    74  71  89 CALM      29.95F
QUANTICO       PTCLDY    80  74  81 SW7       29.96F
COLLEGE PARK*  CLOUDY    79  72  77 CALM      29.94F
LEESBURG*      CLOUDY    77  73  88 CALM      29.97S
MANASSAS*      MOCLDY    74  71  91 CALM      29.96F

$$

MDZ006>007-011-014-230500-
BALTIMORE METRO

CITY           SKY/WX    TMP DP  RH WIND       PRES   REMARKS
BWI AIRPORT    CLOUDY    77  73  87 SW3       29.94F
MD SCIENCE CTR   N/A     83  71  67 MISG      29.94S
MARTIN STATE   PTCLDY    79  75  89 S3        29.95S
ANNAPOLIS      PTCLDY    80  75  84 VRB3      29.94F
FORT MEADE*    CLOUDY    70  68  94 CALM      29.97F

$$

MDZ012-015-019>023-230500-
MARYLAND EASTERN SHORE

CITY           SKY/WX    TMP DP  RH WIND       PRES   REMARKS
OCEAN CITY     PTCLDY    77  74  90 SW5       29.98S
SALISBURY      PTCLDY    76  75  97 SW6       29.97S
BAY BRIDGE AP* MOCLDY    81  73  78 SW6       29.94F
CAMBRIDGE*     CLEAR     77  73  88 CALM      29.96S
EASTON*        MOCLDY    80  73  80 SW3       29.99S

$$

MDZ017>025-230500-
SOUTHERN MARYLAND

CITY           SKY/WX    TMP DP  RH WIND       PRES   REMARKS
PATUXENT RIVER PTCLDY    78  73  84 SW8       29.96F
ST INIGOES     PTCLDY    81  72  74 SW9       29.96F
LEONARDTOWN*   MOCLDY    77  70  78 SW6       29.99S

$$

MDZ003>005-230500-
NORTH CENTRAL MARYLAND

CITY           SKY/WX    TMP DP  RH WIND       PRES   REMARKS
FREDERICK*     CLOUDY    75  73  94 SE3       29.97F
HAGERSTOWN APT CLOUDY    79  73  82 W6        29.95F
WESTMINSTER*   CLOUDY    79  72  78 CALM      29.96F

$$

MDZ501>502-230500-
WESTERN MARYLAND

CITY           SKY/WX    TMP DP  RH WIND       PRES   REMARKS
OAKLAND*       NOT AVBL
CUMBERLAND*    CLOUDY    75  70  83 CALM      30.00F

$$

VAZ025>031-230500-
SHENANDOAH VALLEY

CITY           SKY/WX    TMP DP  RH WIND       PRES   REMARKS
WINCHESTER*    CLOUDY    77  70  78 SW5       29.97S
FRONT ROYAL*   CLOUDY    75  70  83 S3        29.96F
LURAY*         CLOUDY    75  70  83 S3        30.00S
NEW MARKET*    CLOUDY    72  69  88 CALM      29.99F
STAUNTON*      CLOUDY    73  66  80 SW3       30.04F
WAYNESBORO*    CLOUDY    74  68  82 SW3       30.04F

$$

WVZ021-048>050-054>055-230500-
EASTERN WEST VIRGINIA PANHANDLE

CITY           SKY/WX    TMP DP  RH WIND       PRES   REMARKS
MARTINSBURG    MOCLDY    74  71  91 CALM      29.94F
PETERSBURG*    CLOUDY    73  72  97 CALM      29.99F FOG

$$

VAZ036>039-050-230500-
CENTRAL FOOTHILLS

CITY           SKY/WX    TMP DP  RH WIND       PRES   REMARKS
CHARLOTTESVILL MOCLDY    76  71  85 S7        29.99F
CULPEPER*      PTCLDY    75  73  91 S5        29.98S
ORANGE*        CLOUDY    73  70  88 CALM      29.98F
GORDONSVILLE*  CLOUDY    75  72  88 SW5       29.99S
WARRENTON*     MOCLDY    77  70  79 SW5       29.97S

$$

VAZ055>057-230500-
NORTH AND CENTRAL PIEDMONT

CITY           SKY/WX    TMP DP  RH WIND       PRES   REMARKS
FREDERICKSBRG* PTCLDY    77  72  83 SW6       29.96F
STAFFORD*      MOCLDY    75  73  92 S3        30.01S

$$

NCZ024-NYZ072-PAZ021-071-VAZ022-071-230500-
OTHER REGIONAL OBSERVATIONS

CITY           SKY/WX    TMP DP  RH WIND       PRES   REMARKS
NEW YORK CITY  CLOUDY    80  69  69 VRB5      29.93S
PHILADELPHIA   CLOUDY    80  71  74 S6        29.93S
PITTSBURGH     CLOUDY    76  69  79 S9        29.94F
ROANOKE        LGT RAIN  73  69  87 CALM      30.07F
RICHMOND       CLOUDY    78  70  76 SW9       30.00S
RALEIGH        CLOUDY    73  72  96 SW7       30.08S

$$

ANZ530>537-230500-
MARINE OBSERVATIONS

STATION/POSITION TIME  TEMP    WIND        PRES
                       AIR SEA DIR/SP/G
                 (UTC) (F)     (DEG/KT/KT) (MB)
THOMAS PT LIGHT  0400   79 78  220/  7/  8   N/A
BALT KEY BRIDGE  0348   80     220/  6/  8 1013.5F
COVE POINT       0348   80     240/ 12/ 16 1015.0F
LEWISETTA        0348   79 80  250/  5/  5 1015.0F
SOLOMONS ISLAND  0348          230/  9/ 10   N/A
PINEY POINT      0348          240/  5/  7   N/A

$$





USA.gov is the U.S. government's official web portal to all federal, state and local government web resources and services.